This is the latest recevied weather packets stored in our database for station/object K4FDS. If no packets are shown the sender has not sent any weather packets the latest 10 day(s).
| Time | Temp. | Humidity | Pressure | Rain* | Wind** | Luminosity | Snow |
|---|---|---|---|---|---|---|---|
| 1777058352 | 26.67° C | 36% | 1004.3 hPa | 0 mm | 0 m/s | - | - |
| 1777056552 | 26.67° C | 36% | 1004.3 hPa | 0 mm | 0 m/s | - | - |
| 1777054752 | 27.78° C | 34% | 1004.5 hPa | 0 mm | 0 m/s | - | - |
| 1777052952 | 28.33° C | 34% | 1004.6 hPa | 0 mm | 0.45 m/s, 183° | - | - |
| 1777051152 | 27.78° C | 36% | 1005 hPa | 0 mm | 0.45 m/s, 187° | - | - |
| 1777049352 | 28.33° C | 35% | 1005.2 hPa | 0 mm | 0.45 m/s, 152° | - | - |
| 1777047552 | 25° C | 44% | 1006.8 hPa | 0 mm | 0 m/s | - | - |
| 1777045752 | 25° C | 44% | 1006.8 hPa | 0 mm | 0 m/s | - | - |
| 1777043952 | 25° C | 44% | 1006.8 hPa | 0 mm | 0 m/s | - | - |
| 1777042152 | 25° C | 44% | 1006.8 hPa | 0 mm | 0 m/s | - | - |
| 1777040352 | 23.89° C | 46% | 1007.3 hPa | 0 mm | 0 m/s | - | - |
| 1777038554 | 21.67° C | 49% | 1007.8 hPa | 0 mm | 0.89 m/s, 235° | - | - |
| 1777036752 | 19.44° C | 56% | 1007.9 hPa | 0 mm | 0.45 m/s, 280° | - | - |
| 1777034952 | 15.56° C | 75% | 1008.9 hPa | 0 mm | 0 m/s | - | - |
| 1777033152 | 10° C | 92% | 1010.1 hPa | 0 mm | 0 m/s | - | - |
| 1777031352 | 10° C | 92% | 1010.1 hPa | 0 mm | 0 m/s | - | - |
| 1777029552 | 10° C | 92% | 1010.1 hPa | 0 mm | 0 m/s | - | - |
| 1777027752 | 10° C | 92% | 1009.9 hPa | 0 mm | 0 m/s | - | - |
| 1777025952 | 10° C | 92% | 1009.8 hPa | 0 mm | 0 m/s | - | - |
| 1777024152 | 10.56° C | 86% | 1009.6 hPa | 0 mm | 0 m/s | - | - |
| 1777022352 | 10.56° C | 86% | 1009.6 hPa | 0 mm | 0 m/s | - | - |
| 1777020552 | 10.56° C | 86% | 1009.6 hPa | 0 mm | 0 m/s | - | - |
| 1777018752 | 11.11° C | 86% | 1009.5 hPa | 0 mm | 0 m/s | - | - |
| 1777016952 | 11.67° C | 84% | 1009.3 hPa | 0 mm | 0 m/s | - | - |
| 1777015152 | 11.67° C | 83% | 1009.1 hPa | 0 mm | 0 m/s | - | - |
* Rain latest hour (hover to see other rain measurements)
** Current wind speed in m/s (hover to see current wind gust speed)